Weather History for Hagerstown, MD

Change the Weather History Date:

Wednesday, July 17, 2013

  Actual Average Record
Temperature  
Mean Temperature 85 °F -  
Max Temperature 95 °F 82 °F 97 °F (2012)
Min Temperature 74 °F 63 °F 60 °F (2000)
Cooling Degree Days 20    
Month to date cooling degree days 248  
Year to date cooling degree days 605  
Since 1 June cooling degree days 488  
Growing Degree Days 33 (Base 50)    
Moisture  
Dew Point 69 °F    
Average Humidity 65    
Maximum Humidity 93    
Minimum Humidity 36    
Precipitation  
Precipitation 0.00 in - - ()
Month to date precipitation 1.35  
Year to date precipitation 15.14  
Sea Level Pressure  
Sea Level Pressure 30.21 in    
Wind  
Wind Speed 4 mph (NE)    
Max Wind Speed 14 mph    
Max Gust Speed 20 mph    
Visibility 10 miles    
Events      
Averages and records for this station are not official NWS values.
T = Trace of Precipitation, MM = Missing Value Source: NWS Daily Summary

Daily Weather History Graph

Daily Weather History Graph

Search for Another Location

Airport:

Trip Planner

Search our weather history database for the weather conditions in past years. The results will help you decide how hot, cold, wet, or windy it might be!

Date:

Astronomy

Jul. 17, 2013 Rise Set
Actual Time 5:57 AM EDT 8:36 PM EDT
Civil Twilight 5:25 AM EDT 9:07 PM EDT
Nautical Twilight 4:46 AM EDT 9:47 PM EDT
Astronomical Twilight 4:02 AM EDT 10:31 PM EDT
Moon 3:23 PM EDT (7/17) 1:02 AM EDT (7/17)
Length of Visible Light 15h 42m
Length of Day
14h 39m
Waxing Gibbous, 67% of the Moon is Illuminated
Jul 17
Waxing Gibbous
Jul 22
Full
Jul 29
Last Quarter
Aug 6
New
Aug 14
First Quarter

Hourly Weather History & Observations

Time (EDT) Temp. Heat Index Dew Point Humidity Pressure Visibility Wind Dir Wind Speed Gust Speed Precip Events Conditions
12:53 AM 77.0 °F - 71.1 °F 82% 30.24 in 10.0 mi Calm Calm - N/A   Clear
1:53 AM 80.1 °F 83.2 °F 70.0 °F 71% 30.22 in 10.0 mi Calm Calm - N/A   Mostly Cloudy
2:53 AM 75.9 °F - 70.0 °F 82% 30.22 in 10.0 mi Calm Calm - N/A   Partly Cloudy
3:53 AM 77.0 °F - 70.0 °F 79% 30.22 in 10.0 mi South 3.5 mph - N/A   Clear
4:53 AM 75.0 °F - 70.0 °F 84% 30.23 in 10.0 mi Calm Calm - N/A   Clear
5:53 AM 73.9 °F - 70.0 °F 87% 30.25 in 8.0 mi ENE 3.5 mph - N/A   Clear
6:53 AM 73.9 °F - 71.1 °F 91% 30.26 in 7.0 mi Calm Calm - N/A   Clear
7:53 AM 77.0 °F - 71.1 °F 82% 30.26 in 8.0 mi Calm Calm - N/A   Clear
8:53 AM 82.0 °F 86.7 °F 72.0 °F 71% 30.27 in 9.0 mi Calm Calm - N/A   Clear
9:53 AM 86.0 °F 92.2 °F 72.0 °F 63% 30.27 in 10.0 mi NNE 6.9 mph - N/A   Clear
10:53 AM 89.1 °F 95.0 °F 71.1 °F 55% 30.26 in 10.0 mi NNE 6.9 mph - N/A   Clear
11:53 AM 91.9 °F 94.1 °F 64.9 °F 41% 30.25 in 10.0 mi NNE 12.7 mph 16.1 mph N/A   Clear
12:53 PM 91.9 °F 94.1 °F 64.9 °F 41% 30.24 in 10.0 mi NNE 8.1 mph 17.3 mph N/A   Clear
1:53 PM 93.9 °F 96.1 °F 64.9 °F 38% 30.22 in 10.0 mi ENE 8.1 mph - N/A   Clear
2:53 PM 93.9 °F 96.1 °F 64.9 °F 38% 30.20 in 10.0 mi NE 9.2 mph - N/A   Clear
3:53 PM 93.9 °F 95.2 °F 63.0 °F 36% 30.18 in 10.0 mi ENE 4.6 mph - N/A   Clear
4:53 PM 93.0 °F 96.4 °F 66.9 °F 42% 30.17 in 10.0 mi NNE 8.1 mph - N/A   Mostly Cloudy
5:53 PM 93.9 °F 98.6 °F 68.0 °F 43% 30.15 in 10.0 mi ENE 4.6 mph - N/A   Mostly Cloudy
6:53 PM 91.9 °F 95.9 °F 68.0 °F 45% 30.13 in 10.0 mi East 4.6 mph - N/A   Clear
7:53 PM 91.0 °F 95.6 °F 69.1 °F 48% 30.14 in 10.0 mi Calm Calm - N/A   Mostly Cloudy
8:53 PM 89.1 °F 94.1 °F 70.0 °F 53% 30.15 in 10.0 mi Calm Calm - N/A   Partly Cloudy
9:53 PM 89.1 °F 94.1 °F 70.0 °F 53% 30.15 in 10.0 mi Calm Calm - N/A   Scattered Clouds
10:53 PM 84.0 °F 89.6 °F 72.0 °F 67% 30.16 in 10.0 mi Calm Calm - N/A   Partly Cloudy
11:53 PM 81.0 °F 85.8 °F 73.0 °F 77% 30.17 in 8.0 mi NW 4.6 mph - N/A   Clear